GFSSW_250_rhum_003.txt.gz
RH
29 22 14 14 15 15 12 12 13 14 14 14 15 16 16 16 16 14 13 10 10 11 13 15 16 16 19 18 15 15 24 25 26 26 28 31 30 30 32 33 35 35 36 40 44
23 17 16 17 16 14 15 16 16 16 16 16 17 18 17 16 14 12 11 10 11 11 12 14 18 19 19 20 24 22 20 26 30 30 32 33 35 38 43 43 47 48 47 47 52
20 18 17 21 17 19 20 18 18 18 19 21 22 21 18 16 14 12 12 10 9 11 12 13 13 14 15 16 17 20 23 26 26 29 35 36 37 35 34 40 43 46 51 56 60
19 20 18 24 19 22 19 24 22 22 21 22 25 21 17 16 14 13 12 10 8 9 8 8 9 10 12 14 15 15 20 28 34 42 44 39 42 47 44 40 36 35 37 40 45
21 20 18 25 24 20 21 25 24 28 26 22 20 18 17 14 14 14 12 10 8 7 8 7 8 9 11 11 12 14 17 21 23 35 63 84 88 77 63 60 65 69 67 63 58
21 20 22 23 21 20 25 29 30 29 26 19 19 18 15 17 16 17 16 15 13 10 9 8 8 8 8 9 11 12 17 23 23 29 44 71 82 98 100 100 100 98 98 98 98
22 21 20 20 20 24 32 34 28 27 19 16 18 15 18 17 19 21 19 20 16 16 13 10 9 8 8 9 10 10 11 14 16 17 23 32 59 85 92 98 100 100 100 100 100
26 22 28 26 26 32 32 31 27 26 19 17 15 19 19 20 22 23 21 19 23 17 13 11 11 9 10 11 10 9 11 12 14 17 20 27 32 38 46 54 77 99 100 100 100
32 30 39 34 34 28 26 30 28 34 17 17 21 22 23 26 24 24 23 27 20 16 14 14 13 12 10 10 9 8 10 10 11 18 20 22 29 45 63 75 76 66 66 71 76
38 40 42 36 32 28 24 29 39 55 30 28 27 25 30 31 26 25 27 24 22 18 14 14 13 13 12 13 13 12 12 12 14 16 18 20 20 19 20 18 18 19 19 19 20
38 46 42 34 24 24 24 29 32 49 41 34 33 28 40 30 26 30 29 29 26 16 17 20 18 16 20 22 29 32 34 31 30 30 31 31 26 35 38 34 36 34 30 29 33
48 47 44 41 32 23 25 27 29 36 36 36 39 36 35 34 36 35 34 33 33 27 27 35 26 22 20 20 25 33 33 33 33 31 32 34 38 43 46 45 47 52 52 45 47
53 50 50 48 42 31 25 28 28 34 31 33 47 50 39 42 47 50 38 36 42 43 33 52 39 27 26 32 39 37 48 47 57 48 36 35 37 42 42 44 49 47 49 47 47
62 63 60 79 70 42 29 27 28 35 34 37 57 62 59 65 67 50 35 36 40 38 50 75 56 43 39 40 39 29 32 44 47 35 37 44 48 42 50 51 50 49 48 58 60
66 54 50 77 82 48 25 24 30 36 41 50 65 73 66 74 62 46 37 39 39 43 59 72 70 68 42 33 31 32 28 30 34 50 51 41 40 46 49 44 48 46 55 72 76
71 58 57 63 78 37 23 26 26 48 40 61 68 68 64 71 57 43 42 52 56 53 78 68 53 57 60 41 36 28 28 30 32 34 38 42 45 53 52 65 60 54 71 89 95
97 77 69 72 52 25 22 26 26 52 44 61 67 65 70 73 67 41 48 59 72 73 66 66 49 30 36 31 27 27 24 26 27 30 50 62 57 65 63 51 59 68 87 83 100
100 94 70 73 40 34 23 28 27 54 49 58 70 76 77 72 75 42 47 70 71 71 65 64 30 31 25 23 24 23 25 27 29 34 54 65 52 45 51 52 72 90 90 82 70
100 100 91 68 37 32 36 24 25 42 49 62 74 85 92 69 56 52 51 64 73 64 62 62 43 25 28 26 23 22 28 29 31 34 36 41 48 54 54 59 94 76 75 87 54
100 100 100 72 38 41 38 26 28 37 50 67 70 83 99 62 52 58 59 73 65 49 60 53 36 25 27 23 22 23 31 36 38 40 39 43 48 51 56 68 90 85 78 94 39
100 100 100 77 58 55 41 30 28 34 51 78 75 98 94 85 68 69 66 70 69 48 45 46 24 23 22 21 22 28 43 33 37 46 44 55 46 47 61 80 92 80 78 76 27
100 93 100 97 100 85 66 42 34 42 61 72 79 89 91 92 77 63 90 75 75 60 38 44 40 27 20 21 22 26 29 39 52 44 59 45 52 56 59 73 97 70 71 74 27
95 100 100 100 100 93 66 63 46 47 74 77 79 83 91 100 92 73 70 82 64 59 36 40 30 24 19 20 25 23 27 31 49 46 56 62 53 58 61 74 96 82 80 91 19
91 95 93 100 100 100 88 72 62 65 78 94 94 97 92 100 99 84 72 65 73 69 45 35 26 20 20 24 24 23 26 30 37 43 74 48 54 62 67 76 84 100 73 43 16
94 84 98 99 100 100 93 75 76 73 72 82 88 85 97 100 96 71 84 75 84 86 56 44 28 22 26 21 19 22 28 31 37 33 50 46 65 58 81 80 92 77 62 40 17
100 95 87 92 100 100 100 92 92 75 71 66 77 87 100 100 100 94 94 86 91 96 57 53 55 41 21 19 22 25 29 32 38 44 46 52 68 71 79 96 85 87 73 39 14
96 85 83 88 89 96 97 100 99 72 73 78 74 87 92 100 100 100 96 83 93 100 72 59 45 30 24 19 23 29 33 37 42 36 48 56 66 66 84 90 92 78 86 49 14

GFSSW_250_rhum_009.txt.gz
RH
100 85 74 67 48 24 15 16 15 17 19 17 18 19 15 13 12 13 12 11 9 9 8 8 7 6 6 6 6 7 8 9 10 15 18 25 30 34 37 37 39 42 45 49 51
76 45 23 16 15 18 21 22 20 19 17 17 16 15 13 12 13 13 14 11 9 8 7 7 6 6 6 7 7 7 7 8 9 12 20 26 32 36 40 45 45 44 45 47 49
32 26 19 20 20 22 20 23 22 20 17 16 15 13 12 14 14 12 12 10 9 8 7 6 6 6 7 8 7 8 7 8 9 10 11 14 18 21 23 24 30 36 45 56 63
25 21 21 22 21 20 20 20 19 18 15 15 13 12 13 16 13 12 11 12 7 7 8 8 7 8 9 9 8 8 11 11 11 11 11 11 12 14 15 16 18 19 19 17 22
24 23 22 24 22 21 20 19 18 21 18 14 13 13 14 15 12 11 13 11 9 11 10 10 11 11 10 10 12 10 13 10 14 14 13 13 15 15 18 22 20 18 20 18 18
25 22 20 22 24 20 22 19 19 19 14 12 13 15 14 15 14 13 12 10 13 13 10 13 15 14 14 13 14 14 20 16 16 19 18 18 17 16 14 14 14 17 16 18 18
25 22 20 21 20 20 22 23 22 19 14 14 14 16 15 14 15 14 11 13 17 12 12 16 16 16 16 14 18 20 19 21 24 25 26 29 30 29 28 31 30 30 26 24 24
23 22 21 21 20 20 27 27 24 18 17 15 16 16 14 14 14 14 16 16 17 15 18 17 19 18 18 16 18 18 22 24 25 27 30 34 36 32 30 27 28 25 24 32 39
26 24 21 26 24 27 28 25 22 21 18 16 16 16 13 14 14 17 18 21 20 20 24 20 23 19 23 25 22 20 22 27 29 29 34 31 29 30 33 43 48 50 57 53 51
25 24 22 33 33 31 24 24 20 21 16 17 16 17 16 16 18 20 20 20 25 25 32 24 24 23 20 24 25 22 25 27 27 26 26 27 30 38 47 41 47 47 54 54 56
31 26 27 35 33 31 24 24 18 20 17 17 18 19 23 19 18 21 28 29 33 36 36 32 24 23 23 21 22 24 24 24 24 24 25 30 37 43 47 58 64 61 55 54 51
32 30 30 37 33 27 24 26 23 20 22 27 27 22 22 22 23 29 34 38 41 41 45 45 26 27 26 21 23 24 23 25 26 24 27 33 39 37 49 57 51 51 59 60 52
49 31 34 42 38 28 27 26 28 24 21 24 29 30 25 30 33 36 40 44 44 43 46 47 33 33 34 29 23 24 24 26 25 27 31 33 36 39 49 46 52 50 63 62 55
48 31 35 46 45 34 44 43 31 30 25 24 31 40 32 40 38 36 51 57 48 53 50 62 54 37 35 30 25 25 26 23 31 29 46 36 33 41 45 45 49 51 55 55 59
45 32 47 43 55 43 68 55 29 29 25 24 31 37 44 36 40 55 64 53 51 56 60 59 63 46 39 38 27 32 30 27 23 22 24 29 32 39 40 41 41 43 43 44 42
37 34 50 52 58 65 93 69 32 28 26 23 34 40 39 33 46 53 89 76 66 69 69 70 78 77 60 59 45 40 31 27 25 28 34 28 39 38 35 37 38 44 49 52 50
34 45 50 57 57 53 68 78 31 30 22 22 32 37 45 38 52 58 88 92 86 74 85 84 92 86 85 80 56 40 45 49 41 30 31 35 36 29 32 38 42 39 44 42 37
39 44 52 59 61 56 72 50 30 32 24 25 29 35 44 40 44 54 76 66 83 70 91 86 100 90 100 82 47 48 55 56 43 29 38 32 30 32 36 45 46 51 50 48 28
55 59 57 66 71 61 58 56 41 33 34 34 32 33 42 42 35 41 42 46 75 87 91 96 90 97 95 84 58 58 52 40 35 33 26 32 34 32 38 44 41 42 39 56 60
79 75 66 68 70 63 59 51 47 40 45 51 40 47 49 42 36 38 37 47 75 78 88 94 92 82 89 92 53 55 41 39 29 37 28 27 36 31 36 42 42 61 54 52 42
98 96 100 98 97 88 78 69 57 56 50 51 52 54 51 46 38 40 43 48 70 82 83 100 94 85 97 84 48 44 39 33 34 34 26 31 30 36 37 47 44 45 40 52 44
99 84 100 100 100 100 100 98 84 65 64 70 82 75 56 48 49 43 48 47 67 88 97 97 100 99 94 78 71 57 40 38 31 28 32 30 29 34 36 50 50 60 49 46 64
97 98 88 87 89 92 91 78 98 98 97 87 85 70 62 62 51 53 53 50 53 79 83 88 99 94 94 90 80 41 25 29 30 35 32 29 33 34 35 47 53 59 55 48 83
100 100 100 89 82 83 97 90 98 100 100 100 87 74 82 77 59 51 56 55 54 60 73 88 100 97 85 89 60 28 27 30 36 41 50 49 39 30 36 50 59 54 52 59 86
100 100 100 100 99 95 89 100 96 100 100 100 100 87 74 75 70 57 52 59 58 65 68 85 100 96 87 86 47 32 37 44 40 54 58 39 34 32 37 48 54 58 52 80 98
100 100 100 100 100 100 100 100 86 96 100 100 100 99 100 96 81 54 54 68 69 66 72 86 100 83 93 88 52 40 48 56 52 52 45 34 34 35 41 54 60 82 56 65 76
100 100 100 100 100 100 100 100 85 99 100 100 98 97 100 100 84 61 53 75 70 65 76 84 91 68 100 94 67 41 51 34 44 44 40 35 32 33 50 49 62 58 72 93 79

GFSSW_250_rhum_012.txt.gz
RH
76 95 100 100 66 36 20 16 16 19 18 17 15 14 13 12 12 12 11 10 8 7 6 6 6 6 6 6 7 6 7 7 7 9 10 13 15 19 23 30 32 38 45 49 48
100 100 76 48 18 17 18 20 20 19 18 17 15 14 13 12 12 10 9 8 7 7 8 8 7 7 8 7 7 9 9 10 10 10 10 11 12 13 14 16 18 19 21 27 33
69 29 20 16 20 23 22 23 19 18 17 15 13 14 13 12 12 10 9 8 9 8 8 8 8 8 8 8 10 12 10 12 12 11 12 13 13 13 13 13 14 13 12 13 13
44 28 20 19 24 22 20 18 18 15 15 15 14 14 14 13 11 9 9 11 9 6 8 10 9 10 10 8 10 11 11 13 11 11 11 15 13 15 15 14 14 14 13 13 13
17 20 21 22 24 21 18 16 16 19 16 14 13 14 14 12 10 10 10 11 8 7 7 8 9 12 13 11 12 13 16 18 21 21 23 21 22 20 21 20 18 19 17 16 18
18 23 22 26 23 21 20 16 17 19 14 13 14 15 12 12 10 11 13 9 8 9 8 11 13 13 17 17 17 23 22 24 25 24 24 22 24 20 18 17 19 19 24 24 25
24 24 22 24 22 21 20 18 20 19 15 15 15 12 11 12 12 11 9 10 11 11 16 17 18 18 19 21 22 24 24 25 23 22 21 22 20 21 22 24 26 27 27 28 34
26 23 22 21 18 19 21 22 22 17 16 16 12 11 10 10 10 11 11 12 12 15 19 24 24 23 21 23 24 23 24 25 24 23 23 23 28 30 30 30 30 34 34 34 35
31 24 23 19 20 22 25 24 19 19 17 15 13 12 11 10 11 12 12 12 17 20 23 30 32 29 22 23 24 24 24 24 25 28 32 40 40 39 37 37 34 33 33 35 35
33 24 22 24 27 29 24 23 19 16 16 16 14 14 13 11 12 13 14 20 24 33 35 37 35 36 29 21 23 24 24 22 28 30 23 28 32 38 42 36 32 32 36 43 39
38 24 22 28 33 30 23 21 18 19 17 17 19 18 19 15 16 13 17 26 38 44 46 50 44 43 37 26 24 25 27 29 26 25 33 43 44 36 32 32 33 35 39 40 41
34 25 24 31 32 31 25 22 19 21 21 23 28 26 22 23 20 16 20 32 46 50 58 60 67 64 66 65 49 45 39 36 44 54 49 43 37 33 36 36 34 34 33 34 35
54 28 27 32 33 29 24 26 25 22 23 27 30 30 28 29 24 27 25 26 47 57 68 74 78 76 73 68 48 41 42 40 45 50 38 28 35 33 36 30 32 35 33 37 37
46 33 32 39 35 32 33 34 31 29 27 21 27 36 31 28 32 36 32 28 46 55 74 81 76 63 69 82 74 54 54 44 36 40 31 35 32 33 34 31 39 35 33 40 40
44 43 31 46 42 40 52 43 31 32 27 21 28 34 35 31 30 36 32 36 45 56 80 86 85 64 74 75 73 44 36 34 35 30 33 37 36 32 30 38 40 35 37 40 56
63 57 30 50 52 54 61 57 50 32 30 21 28 31 34 37 38 36 35 37 42 49 66 85 89 77 78 81 79 52 42 39 35 37 35 36 33 40 47 38 35 34 48 58 53
86 55 32 52 50 58 63 79 61 32 28 22 26 26 34 39 40 39 36 39 44 43 54 78 82 74 80 82 89 80 36 33 26 28 34 40 47 58 38 35 35 42 41 42 41
93 48 34 55 61 60 58 69 47 32 28 30 35 32 40 44 41 37 38 35 42 46 54 60 64 76 84 96 99 93 41 26 30 34 42 62 60 44 37 32 27 32 42 51 37
76 44 38 53 61 66 62 76 66 46 36 39 44 46 44 50 41 41 43 44 47 39 43 55 65 78 88 100 94 79 42 31 39 50 43 59 53 49 42 35 38 40 36 40 28
66 43 40 56 57 62 58 54 53 52 42 48 46 49 62 76 48 42 47 51 47 41 46 49 64 70 96 100 92 77 44 39 49 57 46 48 40 40 48 48 38 40 42 41 58
66 51 51 62 63 69 53 52 54 60 64 59 57 70 83 79 57 58 52 48 54 48 53 50 66 71 100 100 100 99 81 48 59 59 59 38 39 48 55 50 30 40 47 47 46
78 71 66 65 64 59 61 66 85 90 71 75 84 82 83 72 61 64 56 53 50 46 54 58 62 70 98 100 100 100 94 66 55 68 48 45 46 54 56 55 35 32 51 53 88
91 95 94 99 98 96 87 97 92 72 88 97 100 100 97 79 66 63 66 62 52 56 57 62 63 75 100 100 100 100 84 85 73 64 57 79 75 73 63 50 33 36 76 59 66
100 100 100 100 100 100 99 84 91 89 92 100 100 100 100 99 98 82 70 64 54 54 64 76 72 69 92 87 89 100 93 99 97 77 65 85 89 64 58 43 36 34 54 52 76
100 99 99 100 93 85 85 84 96 95 97 91 93 99 100 100 97 96 83 80 64 64 64 84 76 66 86 94 93 98 99 100 100 90 87 87 75 61 64 42 28 46 65 59 81
100 100 100 100 98 94 91 92 100 100 94 88 95 100 100 100 100 90 91 82 64 64 58 79 67 70 90 99 98 100 100 100 92 82 73 65 61 45 63 44 34 41 57 56 100
100 100 100 100 100 100 100 100 100 93 83 78 100 100 100 100 100 88 93 80 60 60 58 74 58 68 92 100 94 100 100 96 80 65 50 44 44 64 49 40 31 44 59 76 89

GFSSW_250_rhum_015.txt.gz
RH
95 100 77 100 100 91 43 20 16 18 18 17 17 14 13 12 11 11 9 8 8 7 6 6 6 5 5 5 6 6 7 7 8 9 9 9 10 10 10 10 10 10 11 12 14
65 94 100 91 34 20 18 17 17 19 19 17 15 13 12 12 11 10 9 9 7 6 6 8 7 8 8 8 8 9 9 10 9 8 11 10 10 9 10 11 11 10 11 11 12
100 100 86 20 18 19 20 20 20 19 16 15 14 13 13 12 11 9 10 9 6 6 7 8 10 10 9 9 10 13 13 14 11 10 11 12 12 12 15 17 16 16 17 16 16
98 47 19 20 23 22 22 21 18 16 16 15 14 13 14 11 11 9 11 8 7 9 10 10 12 11 12 12 14 12 12 14 16 15 15 19 22 25 25 25 28 22 24 22 24
40 21 19 25 25 21 19 17 16 18 16 14 14 14 12 11 11 12 8 8 8 10 13 15 14 12 13 16 17 22 22 18 20 23 24 28 32 31 33 36 34 33 31 26 25
31 22 22 24 25 21 17 16 17 17 14 14 14 12 11 12 10 10 9 8 10 12 14 16 17 16 17 19 20 22 22 24 26 28 26 27 30 32 33 32 32 31 28 26 34
23 22 24 24 24 21 19 18 19 17 15 15 11 10 10 10 9 9 9 11 10 15 21 24 26 25 23 23 22 23 22 24 25 28 25 31 36 32 31 30 32 32 31 36 37
18 24 25 27 22 21 18 22 22 18 16 12 11 10 10 10 10 10 11 10 10 16 21 26 34 33 32 33 25 25 26 28 28 30 39 40 35 28 29 30 29 31 36 39 35
24 22 22 25 21 20 21 22 20 19 15 13 12 13 12 11 10 10 10 12 15 17 22 28 42 45 48 41 39 32 35 34 32 38 35 34 24 26 27 27 28 33 39 36 36
29 23 21 26 23 26 23 22 20 17 18 15 14 17 16 14 13 14 12 12 18 18 28 39 39 47 49 63 57 43 42 40 34 29 23 24 23 26 29 29 44 44 38 33 31
46 26 23 26 30 28 23 20 18 16 17 17 16 18 20 19 16 17 16 17 15 21 29 46 42 48 56 69 67 40 30 26 26 24 24 28 33 31 32 51 49 40 35 37 47
43 29 23 31 32 25 23 20 21 19 23 24 27 26 26 25 22 19 21 19 19 20 27 32 43 54 66 70 70 55 49 33 33 27 24 29 38 35 56 56 50 49 53 51 36
50 28 23 31 35 27 24 21 23 23 25 28 29 26 25 25 25 26 25 21 22 24 27 30 43 50 66 70 77 73 73 32 27 26 34 40 47 66 58 49 47 50 59 54 55
47 29 24 34 33 29 26 25 27 25 26 22 25 29 29 27 28 30 25 23 24 27 31 32 42 50 60 84 91 82 79 51 27 31 49 47 54 68 43 50 55 56 51 59 37
60 28 26 37 34 27 26 33 33 31 27 21 27 30 31 31 34 34 29 29 29 30 34 34 40 45 51 88 100 97 70 44 35 39 59 62 59 43 46 81 72 55 64 38 30
79 38 30 43 41 35 44 42 34 29 24 22 25 26 28 38 36 36 32 33 33 33 33 39 42 48 59 80 100 100 86 85 65 52 59 68 60 74 96 97 80 72 61 41 37
75 41 36 43 51 45 50 62 48 32 30 23 26 31 32 41 46 40 36 39 45 41 38 45 48 47 64 82 100 94 83 83 78 71 58 75 77 93 93 93 90 60 44 30 30
70 48 48 34 57 59 60 73 61 32 31 26 34 40 47 40 58 64 46 44 45 43 40 52 53 53 60 78 99 83 91 93 91 90 99 100 89 87 79 92 72 68 60 42 42
90 58 73 36 54 62 61 56 58 40 36 38 40 45 46 54 73 72 53 56 52 49 44 52 48 57 65 74 77 84 89 100 100 97 100 92 80 64 66 98 86 77 68 33 27
91 74 93 39 52 61 59 61 64 63 57 43 44 47 56 69 77 68 57 60 56 54 47 44 50 60 67 69 68 80 84 93 95 94 92 73 61 64 81 56 74 71 49 30 33
94 93 91 46 48 60 70 63 63 56 54 54 63 76 75 86 76 67 66 65 63 57 51 50 49 66 70 59 70 86 89 94 100 100 78 68 61 51 48 46 71 76 35 28 32
100 100 83 53 56 58 68 67 58 60 79 80 73 78 83 100 100 94 92 76 72 73 62 54 50 61 65 59 70 85 90 94 97 96 83 95 76 40 63 49 83 54 46 28 36
100 87 73 62 65 54 65 67 59 74 92 75 89 100 100 100 100 100 99 94 88 83 73 53 50 59 66 64 89 84 85 90 82 96 100 100 77 46 52 59 53 31 29 28 41
100 91 79 68 71 71 65 72 86 89 78 78 93 100 87 82 84 93 91 80 79 87 80 58 50 50 55 59 68 66 83 83 82 98 98 86 64 47 45 39 34 42 29 27 31
100 99 94 91 91 93 99 100 100 99 100 92 89 85 89 88 100 100 79 68 62 71 86 64 54 52 57 64 69 68 72 82 97 93 89 69 49 47 33 36 52 46 37 34 40
100 100 100 100 100 100 100 100 100 98 100 100 96 85 72 100 100 97 76 70 61 66 84 70 56 61 68 80 73 77 71 87 95 79 78 56 34 41 40 53 51 55 39 52 50
100 100 100 100 100 100 100 100 100 100 100 96 87 77 90 100 98 90 88 86 60 75 86 74 57 59 74 85 74 79 73 73 90 77 61 42 44 32 43 62 56 45 42 46 43

GFSSW_250_rhum_018.txt.gz
RH
92 97 83 86 98 100 99 96 48 17 18 17 17 14 12 12 12 10 9 10 7 7 5 5 5 5 6 8 10 10 10 9 9 9 11 14 13 12 14 16 16 14 14 14 16
100 85 73 75 100 97 60 30 17 20 19 17 15 13 13 13 11 10 9 10 7 6 6 6 8 8 11 10 12 11 12 13 12 14 15 16 19 17 19 17 14 18 20 19 22
87 100 100 100 54 23 17 17 20 20 17 15 13 14 14 11 10 10 9 7 5 6 6 7 10 15 12 12 13 11 11 14 17 22 23 21 19 23 25 23 25 22 23 21 20
62 98 100 39 17 18 21 22 19 16 16 15 15 14 12 10 10 9 8 6 6 7 8 9 10 13 16 15 16 16 16 16 22 24 23 24 23 33 29 24 24 22 20 19 20
100 100 57 19 20 22 21 18 17 16 15 15 15 13 11 9 8 8 6 7 7 7 8 8 11 11 13 13 13 16 18 17 22 23 24 28 26 24 20 22 22 24 22 23 30
100 45 20 20 21 20 18 16 18 16 15 15 14 12 10 8 8 8 7 8 8 9 11 15 15 19 22 22 19 16 20 19 19 20 22 18 19 18 20 21 23 26 31 36 45
34 20 22 22 22 20 17 17 18 15 15 15 12 10 10 10 11 9 10 11 10 13 18 21 20 25 24 28 27 21 20 20 21 20 20 18 20 25 26 24 28 31 36 48 46
24 23 22 24 24 21 20 22 20 17 15 13 10 10 10 11 12 12 11 12 13 13 14 18 19 23 29 29 29 28 26 25 21 20 20 22 31 26 32 35 39 47 54 57 68
27 22 25 22 24 21 22 24 21 16 14 11 10 11 12 12 14 16 14 14 14 16 16 19 21 22 30 32 37 42 45 42 27 22 22 30 32 34 42 38 45 76 83 72 70
20 24 28 24 23 21 23 23 22 16 14 12 15 17 17 19 18 18 17 16 18 19 21 22 26 27 26 38 44 56 53 44 39 26 27 44 40 48 44 50 70 94 88 80 64
19 24 25 24 22 21 26 21 19 17 16 15 14 17 17 22 20 20 20 18 20 21 24 26 26 29 28 35 50 55 76 66 46 36 36 42 60 65 57 80 98 100 95 80 94
21 23 23 23 22 25 25 19 18 17 18 18 19 25 23 21 22 25 24 21 22 24 27 31 32 33 38 44 52 78 100 72 82 71 59 60 67 73 71 96 100 100 100 96 84
33 32 25 22 22 29 23 20 18 18 21 22 26 27 23 23 26 27 23 22 24 25 32 34 40 40 42 49 52 73 100 74 82 83 76 80 96 100 96 100 99 97 94 94 64
48 50 25 23 30 27 23 26 25 24 24 26 25 25 26 27 31 29 27 24 28 32 32 36 41 40 40 52 55 77 90 78 88 90 99 91 100 100 98 71 70 90 74 62 32
63 52 29 24 36 28 25 24 24 24 26 25 22 30 29 30 36 34 33 31 33 36 35 35 41 46 51 54 66 69 72 75 88 85 100 97 86 70 67 67 55 52 42 39 36
72 50 30 26 32 30 27 27 30 32 31 26 22 25 26 28 34 48 51 42 41 43 38 40 40 46 48 57 68 61 64 83 96 81 73 74 79 95 100 73 47 31 40 60 46
75 53 32 31 35 30 27 30 39 34 31 27 25 24 34 38 38 42 55 43 47 47 42 43 39 44 52 62 57 53 56 62 56 72 74 82 94 100 70 56 38 36 66 46 53
85 74 38 36 40 37 34 50 52 56 37 32 28 31 40 45 45 50 56 52 49 49 55 50 53 51 56 60 57 52 52 55 58 61 72 94 78 81 58 43 38 57 45 54 47
85 88 49 41 44 50 46 57 80 82 50 32 35 38 40 43 53 56 59 60 68 73 67 67 66 55 51 50 58 52 53 54 57 56 66 72 78 61 48 34 51 55 44 40 34
88 84 53 42 48 54 59 75 76 84 65 47 45 43 49 53 43 58 74 87 94 88 86 72 68 55 50 45 54 47 49 51 55 48 50 67 68 46 50 50 72 37 40 44 38
99 93 59 46 62 50 66 66 62 70 65 67 70 56 57 58 55 91 100 100 90 87 73 58 72 63 51 48 58 53 55 59 61 65 58 51 55 46 72 86 58 39 43 44 39
88 93 85 53 81 60 60 64 71 77 72 67 63 80 68 72 100 97 75 78 80 69 52 46 48 75 59 56 62 56 53 59 60 70 65 75 68 64 76 81 56 43 46 49 40
94 87 100 82 70 89 48 63 80 74 70 65 87 79 86 100 95 74 86 98 80 62 47 49 50 79 81 64 67 61 61 56 60 76 95 82 70 72 69 73 56 42 44 48 46
100 95 100 100 83 81 65 75 93 86 81 87 100 94 82 74 72 62 99 99 66 68 67 43 70 71 73 51 50 54 54 60 62 80 95 96 84 80 75 72 48 43 48 50 48
100 94 100 100 100 90 75 87 96 92 88 95 94 95 83 71 69 71 100 66 88 90 66 70 83 65 75 55 49 58 59 66 79 86 91 92 91 87 73 64 45 40 50 57 42
100 100 100 100 98 89 91 94 89 89 100 100 100 100 94 75 68 86 79 46 88 100 87 73 68 67 85 64 56 75 64 78 75 92 90 79 82 93 72 63 48 55 61 57 50
100 100 100 100 100 100 99 100 100 100 100 100 100 100 80 74 70 91 86 60 77 100 74 57 61 62 79 85 77 74 69 69 86 83 91 76 92 100 78 79 71 82 63 64 54

GFSSW_250_rhum_021.txt.gz
RH
33 33 42 100 100 100 71 83 92 77 51 18 14 14 12 11 10 9 9 7 5 5 5 4 5 7 9 11 11 11 14 15 14 13 13 14 14 12 12 12 13 12 13 13 17
42 61 97 85 98 100 99 100 94 34 16 17 15 12 11 10 9 9 7 6 5 5 5 6 6 7 12 13 12 11 12 16 14 13 16 14 11 12 13 16 15 16 18 18 19
100 91 74 84 96 98 91 56 26 19 18 15 13 13 10 8 7 7 6 6 6 5 5 6 6 7 8 8 10 11 9 10 11 13 15 14 14 17 17 18 19 20 23 21 20
100 100 100 100 98 64 28 17 19 17 16 13 14 12 9 7 7 6 7 6 6 7 8 8 8 8 11 13 13 14 12 12 11 10 13 16 18 19 16 19 18 21 22 22 33
100 100 100 100 31 17 18 20 17 16 15 14 13 10 8 7 7 8 9 8 8 8 8 10 11 13 14 11 10 11 10 11 11 12 12 18 19 17 19 21 23 29 34 41 41
84 80 100 61 19 20 20 18 17 15 15 14 12 9 8 9 10 10 12 11 11 11 12 14 15 15 17 16 15 17 17 17 18 18 18 18 20 22 22 25 33 46 61 53 50
100 100 88 22 20 20 18 16 16 15 16 14 10 9 9 11 13 14 14 14 15 16 17 17 17 17 19 22 22 21 24 30 30 28 32 28 28 32 29 36 43 58 78 65 63
100 98 35 21 21 19 17 16 17 16 17 13 10 10 10 11 14 16 14 15 16 19 18 20 20 20 20 21 25 23 29 47 44 43 47 44 43 46 44 54 63 72 85 68 68
96 34 24 23 22 21 19 19 19 18 16 13 10 10 13 14 19 16 16 16 17 20 23 22 22 24 26 26 28 43 55 67 56 58 56 59 58 61 68 81 88 88 72 61 38
44 27 23 22 22 21 20 21 21 18 14 11 11 14 14 17 17 18 18 18 20 20 23 26 26 27 30 34 38 44 76 84 52 61 61 80 70 60 70 73 69 75 66 38 43
39 28 22 25 24 22 20 24 23 18 13 13 15 15 16 18 20 20 20 19 22 24 23 29 31 27 30 36 42 46 44 53 47 47 61 84 70 66 72 72 92 84 63 47 50
42 26 24 27 24 21 21 25 23 19 16 15 15 17 22 21 23 25 22 23 22 30 29 31 32 34 38 41 42 47 42 56 55 52 54 88 80 72 84 100 100 65 45 43 51
43 25 26 27 25 19 23 23 20 20 18 17 19 22 25 26 25 27 28 31 28 34 32 32 34 34 41 47 49 46 47 39 46 58 56 70 83 85 100 97 66 43 48 64 42
34 24 24 23 22 21 26 22 19 20 18 21 23 25 26 25 28 36 41 41 39 39 39 38 46 41 48 48 51 48 45 42 43 52 53 56 81 74 75 61 53 60 85 60 53
64 24 24 29 24 24 26 21 20 22 24 24 24 25 29 26 27 29 33 43 38 34 38 46 52 52 58 51 46 43 43 39 43 48 54 69 65 60 58 67 71 79 74 59 46
66 35 40 47 21 27 27 25 25 25 24 26 27 24 24 28 35 37 34 33 39 40 53 60 63 61 60 48 44 43 41 41 44 56 67 62 68 69 76 72 66 72 64 42 37
80 50 60 43 24 30 30 25 25 26 31 32 29 24 22 31 39 38 34 39 38 42 54 67 67 53 59 56 44 45 45 44 42 47 55 58 74 83 67 63 70 61 46 39 57
92 83 85 45 29 30 33 29 27 34 32 33 31 29 25 38 38 41 38 30 58 69 70 81 67 49 44 60 53 49 54 47 36 38 56 76 72 70 71 69 73 56 50 51 67
90 92 89 48 34 31 33 31 28 40 42 35 32 27 35 37 41 46 38 67 82 89 68 69 56 43 39 62 63 50 50 45 42 41 60 68 72 74 71 70 86 65 63 58 62
100 96 93 55 38 38 38 32 33 54 70 80 71 40 44 54 53 48 72 85 70 74 76 62 47 38 34 58 61 51 41 42 42 39 44 69 78 67 76 84 86 81 66 74 61
100 100 95 87 49 42 46 45 47 56 68 78 82 61 72 64 61 56 81 80 67 91 68 54 51 35 51 64 59 49 43 51 58 56 48 58 78 80 84 93 87 90 90 69 62
100 100 94 93 70 45 51 54 57 67 65 62 84 79 78 69 70 69 77 66 86 80 55 75 43 42 66 57 61 67 56 54 58 54 49 74 77 81 94 100 98 86 76 63 57
100 100 100 88 80 52 53 65 59 69 65 70 87 79 72 80 79 75 70 67 96 70 46 75 52 44 47 56 57 71 66 64 43 49 73 81 86 87 100 100 92 84 63 64 56
100 100 100 100 85 69 50 81 74 56 69 80 84 86 90 91 90 74 65 76 89 57 63 73 51 41 36 50 54 62 53 49 43 54 72 90 92 93 100 100 87 79 67 59 58
100 100 100 100 100 94 83 62 92 77 68 88 94 90 94 83 85 74 67 78 84 99 78 90 67 40 35 42 54 54 54 55 52 51 77 100 76 100 100 100 90 77 74 55 77
100 100 100 100 98 99 100 94 80 84 83 98 93 98 100 100 84 86 66 87 93 94 86 100 90 65 58 59 66 72 70 59 49 63 90 76 78 90 100 89 85 69 75 62 89
100 100 100 100 100 100 100 100 100 98 88 97 94 95 100 100 82 78 70 92 100 99 93 94 91 83 58 73 75 89 67 57 56 61 59 59 72 83 93 72 73 72 72 77 85